Flag for Austria Weather past 2 weeks in Knittelfeld, Styria, Austria

Now
48 °F

Partly sunny.


Feels Like: 48 °F
Forecast: 42 / 71 °F
Wind: 1 mph from North

Location: Zeltweg

Current Time: May 29, 2015 at 9:00:27 AM

Latest Report: May 29, 2015 at 8:20 AM


Visibility: 31 mi

Pressure: 30.07 "Hg

Humidity: 71%

Dew point: 39 °F

Location of KnittelfeldLocation

Historic Weather in Knittelfeld — Graph

°F

Knittelfeld temperature yesterday

Maximum temperature yesterday: 68 °F (at 3:50 PM)
Minimum temperature yesterday: 37 °F (at 5:50 AM)
Average temperature yesterday: 57 °F

Past Weeks' High & Low Weather Summary

 TemperatureHumidityPressure
High72 °F (May 19, 11:50 AM)100% (May 15, 10:50 PM)30.24 "Hg (May 15, 10:50 PM)
Low37 °F (May 28, 5:50 AM)26% (May 28, 6:50 PM)29.77 "Hg (May 19, 5:20 PM)
Average56 °F68%29.99 "Hg
* Reported May 14 7:50 AM — May 29 7:50 AM, Knittelfeld, Weather by CustomWeather, © 2015

Note: Actual official high and low records may vary slightly from our data, if they occured in-between our weather recording intervals... More about our weather records

Advertising

Knittelfeld weather history for previous 24 hours

 ConditionsComfort  
Time TempWeatherWind HumidityBarometerVisibility
7:50 AM
Fri, May 29
46 °FPartly sunny.1 mph76%30.07 "Hg31 mi
7:20 AM45 °FPartly sunny.1 mph81%30.07 "Hg31 mi
6:50 AM43 °FPartly sunny.No wind81%30.07 "Hg31 mi
5:50 AM39 °FPassing clouds.No wind100%30.07 "Hg25 mi
10:50 PM
Thu, May 28
54 °FClear.5 mph63%30.01 "Hg12 mi
9:50 PM54 °FClear.5 mph63%30.01 "Hg12 mi
8:50 PM57 °FPassing clouds.5 mph55%30.01 "Hg25 mi
7:50 PM63 °FPassing clouds.7 mph42%29.98 "Hg31 mi
6:50 PM68 °FPassing clouds.5 mph26%29.98 "Hg31 mi
5:50 PM68 °FPassing clouds.9 mph28%29.98 "Hg31 mi
4:50 PM66 °FScattered clouds.5 mph28%29.98 "Hg31 mi
4:20 PM68 °FScattered clouds.6 mph28%30.01 "Hg31 mi
3:50 PM68 °FScattered clouds.6 mph28%30.01 "Hg31 mi
3:20 PM66 °FScattered clouds.5 mph30%30.01 "Hg31 mi
2:50 PM64 °FScattered clouds.6 mph30%30.01 "Hg31 mi
2:20 PM64 °FPassing clouds.3 mph30%30.01 "Hg31 mi
1:50 PM63 °FPassing clouds.5 mph37%30.04 "Hg31 mi
1:20 PM63 °FPassing clouds.7 mph32%30.04 "Hg31 mi
12:50 PM61 °FPassing clouds.7 mph36%30.04 "Hg31 mi
12:20 PM61 °FPassing clouds.5 mph36%30.07 "Hg31 mi
11:50 AM59 °FPassing clouds.5 mph36%30.07 "Hg31 mi
11:20 AM59 °FPassing clouds.8 mph39%30.07 "Hg31 mi
10:50 AM57 °FPassing clouds.7 mph39%30.07 "Hg31 mi
10:20 AM57 °FPassing clouds.6 mph41%30.09 "Hg31 mi
9:50 AM54 °FPassing clouds.5 mph47%30.09 "Hg31 mi
9:20 AM52 °FPassing clouds.2 mph58%30.09 "Hg25 mi
Weather by CustomWeather, © 2015

See weather overviewHow to use our weather pages